sat.trackr.live / text

‹ back to catalog

GAOFEN-11 04

NORAD 54818 · 2022-176A

PAYLOAD ACTIVE UNKNOWN

§ Identity

Operator
Country
PRC
Launch date
2022-12-27
Launch site
TAISC
Launch vehicle
Mass (kg)
RCS (m²)

External: N2YO · Heavens-Above · Gunter

§ Orbital elements

Epoch: 2026-09-21T22:17:40.235424Z

Period
94.51 min
Inclination
97.4356°
Eccentricity
0.0006980
Mean motion
15.23710387 rev/d
Perigee alt
489.9 km
Apogee alt
499.5 km
Semi-major
6,872.8 km
B*
1.5895e-4
RAAN
37.1593°
Arg perigee
356.1486°
Mean anomaly
3.9696°
Rev number
20,798

§ Raw data

GAOFEN-11 041 54818U 22176A   26264.92893791  .00003747  00000+0  15895-3 0  99932 54818  97.4356  37.1593 0006980 356.1486   3.9696 15.23710387207982

JSON: /api/v1/satellites/54818 · /tle

For live sub-satellite position, see the globe view (requires WebGL).

§ Visibility from observer

Set your observer location to see the next 7 days of passes ≥ 10°. The values pass through the URL so the page stays shareable.

No JS? Fill the form by hand. The geolocation button needs JavaScript.